Location: ???? ?????????
(31.1304°N, 31.7111°E)
Time: 02:17:15
(UTC+00:00)

Cosmos 1346 Rocket - Pass Details

Date: 29 October 2020
Orbit: 535 x 543 km, 81.2° (Epoch: 25 November)

Event Time Altitude Azimuth Distance (km) Brightness Sun altitude
Rises 15:57:35 0° 5° (N) 2,706 6.2 -11.4°
Reaches altitude 10° 15:59:57 10° 16° (NNE) 1,810 5.2 -11.9°
Maximum altitude 16:03:29 30° 78° (ENE) 988 3.5 -12.7°
Drops below altitude 10° 16:07:00 10° 141° (SE) 1,800 5.1 -13.4°
Sets 16:09:21 0° 152° (SSE) 2,688 6.1 -13.9°
